Location: Waco, TX
(31.5480°N, 97.1670°W)
Time: 03:58:19
(UTC-06:00)

ISS - Pass Details

Date: 22 November 2017
Orbit: 401 x 407 km, 51.6° (Epoch: 18 November)

Event Time Altitude Azimuth Distance (km) Brightness Sun altitude
Rises 04:19:26 0° 315° (NW) 2,312 - -34.5°
Reaches altitude 10° 04:21:31 10° 315° (NW) 1,450 - -34.1°
Maximum altitude 04:24:46 89° 231° (SW) 404 - -33.4°
Drops below altitude 10° 04:28:00 10° 136° (SE) 1,442 - -32.7°
Exits shadow 04:29:05 - 136° (SE) 1,892 0.1 -32.5°
Sets 04:30:04 0° 136° (SE) 2,297 0.6 -32.3°
